Location: G�nzburg
(48.4565°N, 10.3217°E)
Time: 15:39:53
(UTC+01:00)

Tiangong 1 - Visible Passes

Search period start: 21 January 2018 00:00
Search period end: 31 January 2018 00:00
Orbit: 262 x 287 km, 42.8° (Epoch: 21 January)

Date Brightness Start Highest point End Pass type
(mag) Time Alt. Az. Time Alt. Az. Time Alt. Az.
21 Jan 2.9 17:57:10 10° WSW 17:59:05 19° S 18:00:58 10° SE visible
22 Jan 3.2 17:56:36 10° WSW 17:58:17 16° SSW 17:59:58 10° SSE visible
23 Jan 3.5 17:56:03 10° SW 17:57:18 13° SSW 17:58:34 10° SSE visible
